[[[{"header":{"parameterUnit":"kt","parameterCategory":2,"dx":1,"dy":1,"la1":30.253999710083008,"la2":30.299108505249023,"lo1":-89.0895004272461,"lo2":-89.04439544677734,"nx":28,"ny":28,"refTime":"2022-10-07T21:00:00:Z","depth":0,"parameterNumber":1,"parameterNumberName":"U-component_of_WINDS"},"data":[-4.609,-4.622,-4.6197,-4.6336,-4.6338,-4.6429,-4.6455,-4.6485,-4.6503,-4.6609,-4.6666,-4.6656,-4.6665,-4.6728,-4.6789,-4.6784,-4.6814,-4.6875,-4.686,-4.6599,-4.6562,-4.6526,-4.6495,-4.6881,-4.6881,-4.7134,-4.7137,-4.7139,-4.5898,-4.5902,-4.5968,-4.6017,-4.6074,-4.5999,-4.6032,-4.6085,-4.6169,-4.6192,-4.6246,-4.6338,-4.6408,-4.6396,-4.646,-4.6522,-4.6492,-4.6541,-4.6539,-4.6542,-4.6262,-4.6228,-4.6564,-4.6564,-4.6564,-4.6564,-4.6564,-4.6563,-4.5545,-4.5624,-4.564,-4.5712,-4.573,-4.5763,-4.5835,-4.5821,-4.5886,-4.5949,-4.5908,-4.6003,-4.6023,-4.6089,-4.6106,-4.6179,-4.6122,-4.6169,-4.6182,-4.6196,-4.6216,-4.5859,-4.6188,-4.6187,-4.6186,-4.6185,-4.6185,0,-4.5281,-4.5256,-4.5318,-4.5374,-4.5424,-4.5466,-4.5499,-4.5543,-4.5483,-4.554,-4.562,-4.5662,-4.5746,-4.582,-4.5874,-4.5882,-4.5815,-4.5804,-4.5838,-4.5863,-4.5876,-4.5875,-4.5422,-4.5797,-4.5793,-4.5791,-4.5789,-4.5788,-4.4927,-4.5021,-4.5027,-4.5073,-4.5086,-4.5163,-4.5204,-4.5144,-4.5191,-4.5224,-4.5297,-4.5369,-4.5424,-4.5557,-4.5542,-4.5606,-4.5575,-4.5721,-4.5585,-4.5602,-4.5583,-4.558,-4.559,-4.5751,-4.5756,-4.5759,-4.5763,0,-4.4731,-4.4692,-4.4831,-4.4827,-4.4829,-4.4932,-4.4929,-4.5005,-4.4984,-4.5087,-4.5107,-4.5075,-4.5156,-4.5116,-4.5201,-4.5178,-4.5349,-4.5314,-4.5342,-4.5334,-4.5464,-4.5455,-4.5885,-4.5939,-4.5533,-4.5537,-4.5541,0,-4.4417,-4.4543,-4.4479,-4.4562,-4.4699,-4.4636,-4.4775,-4.477,-4.4786,-4.4866,-4.4781,-4.4858,-4.4796,-4.4868,-4.4835,-4.4967,-4.4982,-4.4974,-4.4966,-4.4986,-4.4987,-4.5015,-4.4999,-4.4935,-4.4933,-4.4931,-4.493,0,-4.4119,-4.423,-4.4363,-4.4383,-4.4393,-4.4458,-4.4465,-4.4482,-4.4523,-4.457,-4.4597,-4.4656,-4.469,-4.4738,-4.4696,-4.4606,-4.4855,-4.4722,-4.4848,-4.485,-4.4911,-4.4909,-4.5293,-4.4927,-4.4926,-4.4926,-4.4925,0,-4.3861,-4.3909,-4.4106,-4.4113,-4.4145,-4.4232,-4.4287,-4.4352,-4.4377,-4.4361,-4.4398,-4.4339,-4.4448,-4.4319,-4.4469,-4.4364,-4.4402,-4.4404,-4.4412,-4.4425,-4.4284,-4.4512,-4.4878,-4.4918,-4.4429,-4.4425,-4.4421,0,-4.3532,-4.3721,-4.3668,-4.3858,-4.394,-4.3839,-4.3935,-4.3959,-4.3947,-4.4015,-4.4,-4.408,-4.3975,-4.3996,-4.4074,-4.4065,-4.4202,-4.4044,-4.415,-4.4154,-4.4151,-4.4486,-4.4553,-4.4801,-4.4368,-4.4373,-4.4377,0,-4.3273,-4.3284,-4.3321,-4.3342,-4.3363,-4.3432,-4.3541,-4.3605,-4.3654,-4.369,-4.3783,-4.3891,-4.3818,-4.3852,-4.381,-4.3895,-4.4107,-4.3806,-4.3805,-4.3865,-4.4336,-4.4399,-4.4441,-4.4061,-4.4067,-4.4072,-4.4335,0,-4.2901,-4.299,-4.3088,-4.3137,-4.3182,-4.3298,-4.3257,-4.331,-4.3265,-4.325,-4.3383,-4.3395,-4.3463,-4.3498,-4.3455,-4.366,-4.3621,-4.3542,-4.342,-4.3637,-4.3724,-4.3758,-4.3294,-4.329,-4.3287,-4.3284,0,0,-4.2599,-4.2725,-4.2665,-4.2769,-4.2805,-4.27,-4.2828,-4.2851,-4.29,-4.2928,-4.2857,-4.3015,-4.3028,-4.3196,-4.326,-4.3287,-4.3321,-4.3247,-4.3533,-4.3561,-4.3586,-4.3679,-4.3716,-4.3278,-4.3277,-4.3276,-4.3275,0,-4.2456,-4.2467,-4.2593,-4.2613,-4.264,-4.2618,-4.2648,-4.2658,-4.2655,-4.2784,-4.2699,-4.2774,-4.2902,-4.2929,-4.2959,-4.3223,-4.3158,-4.3246,-4.3404,-4.3501,-4.3533,-4.3562,-4.3659,-4.3695,-4.3267,-4.3268,-4.3268,0,-4.2197,-4.2203,-4.2259,-4.2333,-4.2351,-4.2438,-4.2296,-4.2394,-4.2459,-4.2343,-4.2474,-4.2476,-4.2507,-4.267,-4.2741,-4.268,-4.3012,-4.2899,-4.2919,-4.2928,-4.302,-4.3059,-4.3093,-4.264,-4.2638,-4.2636,0,0,-4.208,-4.2161,-4.2151,-4.2299,-4.2316,-4.2284,-4.2326,-4.2286,-4.2315,-4.2328,-4.2329,-4.2361,-4.2435,-4.2485,-4.2552,-4.2735,-4.2739,-4.2824,-4.2853,-4.2878,-4.29,-4.2999,-4.3037,-4.2629,-4.2628,-4.2628,0,0,-4.2024,-4.2018,-4.1967,-4.2133,-4.2163,-4.2164,-4.2257,-4.2196,-4.2252,-4.2235,-4.2173,-4.2179,-4.233,-4.2336,-4.2238,-4.2508,-4.2386,-4.2409,-4.25,-4.2537,-4.2566,-4.2564,-4.2099,0,0,0,0,0,-4.1858,-4.2017,-4.1971,-4.1993,-4.2088,-4.2189,-4.2201,-4.2153,-4.2067,-4.2142,-4.2134,-4.2059,-4.2271,-4.2182,-4.2206,-4.2318,-4.253,-4.2548,-4.2564,-4.2724,-4.2763,-4.2796,0,0,0,0,0,0,-4.1866,-4.1893,-4.1967,-4.1976,-4.1997,-4.2183,-4.2027,-4.2019,-4.2058,-4.2042,-4.2063,-4.206,-4.2022,-4.2167,-4.2189,-4.2297,-4.2091,-4.2537,-4.2552,-4.2565,-4.2738,-4.277,-4.2797,0,0,0,0,0,-4.1872,-4.1894,-4.2058,-4.1973,-4.1991,-4.1966,-4.2021,-4.2013,-4.2043,-4.203,-4.2024,-4.2003,-4.2026,-4.2042,-4.218,-4.2288,-4.2076,-4.2084,-4.2547,-4.2558,-4.2569,-4.2753,0,0,0,0,0,0,-4.1877,-4.1887,-4.2061,-4.2065,-4.1909,-4.1954,-4.1959,-4.2008,-4.2027,-4.2023,-4.1966,-4.1953,-4.2032,-4.2042,-4.2055,-4.2287,-4.2063,-4.2072,-4.2077,-4.2555,-4.2565,-4.2573,0,0,0,0,0,0,-4.1875,-4.1892,-4.2063,-4.1985,-4.1979,-4.1944,-4.1949,-4.2059,-4.2029,-4.1962,-4.1951,-4.196,-4.2014,-4.2044,-4.2053,-4.2228,-4.2053,-4.2061,-4.2067,-4.2071,-4.2563,-4.257,0,0,0,0,0,0,-4.1881,-4.1895,-4.1983,-4.1979,-4.1974,-4.2013,-4.2041,-4.2142,-4.196,-4.1963,-4.1942,-4.1934,-4.2018,-4.2025,-4.2052,-4.2224,-4.2227,-4.2053,-4.2059,-4.2063,-4.2066,0,0,0,0,0,0,0,-4.1886,-4.1806,-4.2038,-4.1975,-4.197,-4.21,-4.2101,-4.2102,-4.1958,-4.1951,-4.1944,-4.1938,-4.2006,-4.2015,-4.2024,-4.222,0,0,-4.2053,-4.2057,0,0,0,0,0,0,0,0,-4.1799,-4.1804,-4.2038,-4.2039,-4.204,-4.21,-4.2101,-4.2101,-4.1957,-4.1951,-4.1946,-4.194,-4.2009,-4.2016,-4.2023,0,0,0,0,0,0,0,0,0,0,0,0,0,0,0,-4.2038,-4.2039,0,-4.21,-4.2101,-4.2101,-4.1956,-4.1951,-4.1947,-4.1942,-4.2011,-4.2017,-4.2023,0,0,0,0,0,0,0,0,0,0,0,0,0,0,0,0,0,0,0,0,0,0,0,0,0,0,0,0,0,0,0,0,0,0,0,0,0,0,0,0,0,0,0,0,0,0,0,0,0,0,0,0,0,0,0,0,0,0,0,0,0,0,0,0,0,0,0,0,0]}],[{"header":{"parameterUnit":"kt","parameterCategory":2,"dx":1,"dy":1,"la1":30.253999710083008,"la2":30.299108505249023,"lo1":-89.0895004272461,"lo2":-89.04439544677734,"nx":28,"ny":28,"refTime":"2022-10-07T21:00:00:Z","depth":0,"parameterNumber":2,"parameterNumberName":"V-component_of_WINDS"},"data":[-10.0274,-10.0412,-10.0401,-10.0552,-10.0566,-10.0666,-10.0698,-10.0736,-10.0763,-10.0879,-10.0943,-10.0942,-10.0961,-10.1032,-10.1098,-10.1095,-10.1123,-10.1182,-10.1168,-10.092,-10.0885,-10.0851,-10.0818,-10.1189,-10.1189,-10.1426,-10.1428,-10.143,-10.0092,-10.0109,-10.0186,-10.0252,-10.0317,-10.0254,-10.0299,-10.0357,-10.0447,-10.0482,-10.0544,-10.0643,-10.0719,-10.0718,-10.0788,-10.0849,-10.0821,-10.0869,-10.0863,-10.0866,-10.0601,-10.0566,-10.089,-10.089,-10.089,-10.089,-10.089,-10.089,-9.9759,-9.9843,-9.9876,-9.9959,-9.9988,-10.0032,-10.0108,-10.0106,-10.0179,-10.0253,-10.0222,-10.0322,-10.0352,-10.0428,-10.0449,-10.0525,-10.0469,-10.0516,-10.0527,-10.0539,-10.0554,-10.0212,-10.0537,-10.0536,-10.0535,-10.0534,-10.0533,0,-9.951,-9.9494,-9.9567,-9.9637,-9.9696,-9.9748,-9.9793,-9.984,-9.9797,-9.9859,-9.9947,-9.9994,-10.0088,-10.0166,-10.0228,-10.024,-10.0175,-10.0168,-10.0199,-10.0216,-10.0222,-10.0219,-9.9786,-10.0158,-10.0155,-10.0152,-10.015,-10.0149,-9.9171,-9.9271,-9.9299,-9.9352,-9.9373,-9.9459,-9.9506,-9.9461,-9.9513,-9.9559,-9.9634,-9.9714,-9.9774,-9.9915,-9.9907,-9.9976,-9.9944,-10.0088,-9.9954,-9.9966,-9.9944,-9.9938,-9.9947,-10.0114,-10.0119,-10.0122,-10.0125,0,-9.8981,-9.8959,-9.9109,-9.9125,-9.9132,-9.9239,-9.925,-9.9331,-9.9319,-9.9428,-9.945,-9.943,-9.9516,-9.9484,-9.9575,-9.9556,-9.9725,-9.9694,-9.9715,-9.9706,-9.983,-9.9819,-10.0241,-10.0293,-9.991,-9.9914,-9.9917,0,-9.8682,-9.8815,-9.8774,-9.8862,-9.9007,-9.8958,-9.9102,-9.9105,-9.913,-9.9216,-9.9139,-9.922,-9.9167,-9.9244,-9.9215,-9.9348,-9.9366,-9.9358,-9.9348,-9.9364,-9.9365,-9.9388,-9.9369,-9.9325,-9.9323,-9.9321,-9.9319,0,-9.8386,-9.8519,-9.8663,-9.8689,-9.8718,-9.8786,-9.8801,-9.8828,-9.8875,-9.8929,-9.8958,-9.9026,-9.9062,-9.9114,-9.9077,-9.8988,-9.924,-9.9109,-9.9231,-9.9233,-9.9288,-9.9284,-9.9669,-9.9317,-9.9316,-9.9315,-9.9315,0,-9.814,-9.82,-9.8411,-9.8433,-9.8469,-9.8564,-9.8627,-9.87,-9.8734,-9.8723,-9.8765,-9.8709,-9.8825,-9.8696,-9.8853,-9.8747,-9.8786,-9.8789,-9.8798,-9.8804,-9.8661,-9.888,-9.9251,-9.9287,-9.8813,-9.8808,-9.8805,0,-9.7806,-9.8013,-9.7973,-9.8175,-9.8266,-9.8173,-9.8276,-9.8309,-9.8303,-9.8377,-9.8368,-9.8453,-9.8351,-9.8372,-9.8454,-9.8448,-9.8586,-9.8428,-9.8532,-9.8536,-9.8525,-9.8866,-9.8928,-9.9174,-9.8751,-9.8756,-9.8761,0,-9.7543,-9.7579,-9.7618,-9.7645,-9.7682,-9.7758,-9.7877,-9.7951,-9.8003,-9.8048,-9.8144,-9.8263,-9.819,-9.8227,-9.8188,-9.8275,-9.8491,-9.8185,-9.8185,-9.824,-9.8721,-9.878,-9.8821,-9.8445,-9.8452,-9.8457,-9.8718,0,-9.7174,-9.7275,-9.738,-9.7444,-9.7498,-9.7622,-9.759,-9.765,-9.7608,-9.7597,-9.7739,-9.7756,-9.783,-9.7868,-9.7828,-9.8038,-9.7997,-9.7918,-9.7789,-9.8014,-9.8099,-9.8134,-9.7666,-9.7662,-9.7658,-9.7656,0,0,-9.6859,-9.7003,-9.6954,-9.7069,-9.7111,-9.7012,-9.7148,-9.7177,-9.7238,-9.7268,-9.7197,-9.7367,-9.7384,-9.7559,-9.7627,-9.7657,-9.769,-9.7613,-9.7908,-9.7936,-9.7962,-9.8054,-9.8091,-9.765,-9.7648,-9.7647,-9.7646,0,-9.6718,-9.6741,-9.6877,-9.6906,-9.6946,-9.6928,-9.6961,-9.6983,-9.6982,-9.7122,-9.7036,-9.7117,-9.7255,-9.7283,-9.7316,-9.7592,-9.7522,-9.7617,-9.7777,-9.7875,-9.7908,-9.7937,-9.8034,-9.8069,-9.7638,-9.7638,-9.7639,0,-9.6452,-9.647,-9.6532,-9.6625,-9.6649,-9.6745,-9.6603,-9.6711,-9.6781,-9.6665,-9.6804,-9.6809,-9.6845,-9.7016,-9.7091,-9.7027,-9.737,-9.7256,-9.7276,-9.7283,-9.7377,-9.7417,-9.7452,-9.6988,-9.6986,-9.6984,0,0,-9.6334,-9.6428,-9.6431,-9.6592,-9.6613,-9.6589,-9.6637,-9.6599,-9.6635,-9.6649,-9.6654,-9.669,-9.6768,-9.6822,-9.6894,-9.7086,-9.7088,-9.7178,-9.7208,-9.7233,-9.7254,-9.7355,-9.7394,-9.6976,-9.6976,-9.6976,0,0,-9.6276,-9.6287,-9.6238,-9.6421,-9.6459,-9.6471,-9.657,-9.651,-9.6572,-9.6553,-9.6493,-9.65,-9.6658,-9.6666,-9.6564,-9.6847,-9.672,-9.6744,-9.6836,-9.6874,-9.6904,-9.6898,-9.6418,0,0,0,0,0,-9.6115,-9.6285,-9.6242,-9.6267,-9.6383,-9.6496,-9.651,-9.6465,-9.6377,-9.6456,-9.645,-9.6372,-9.6598,-9.6506,-9.6531,-9.6646,-9.6873,-9.6892,-9.6909,-9.7072,-9.7112,-9.7146,0,0,0,0,0,0,-9.6124,-9.6156,-9.6237,-9.6257,-9.6282,-9.6489,-9.6329,-9.6322,-9.6367,-9.635,-9.6376,-9.6373,-9.6335,-9.649,-9.6513,-9.6623,-9.641,-9.688,-9.6896,-9.691,-9.7086,-9.7119,-9.7147,0,0,0,0,0,-9.6132,-9.6157,-9.6355,-9.6254,-9.6276,-9.6257,-9.6323,-9.6315,-9.6349,-9.634,-9.6335,-9.6311,-9.634,-9.6356,-9.6503,-9.6614,-9.6393,-9.6402,-9.6891,-9.6903,-9.6914,-9.7102,0,0,0,0,0,0,-9.6137,-9.615,-9.6358,-9.6363,-9.6186,-9.6245,-9.6253,-9.6309,-9.6334,-9.6331,-9.6272,-9.6258,-9.6345,-9.6357,-9.637,-9.6613,-9.638,-9.6389,-9.6395,-9.69,-9.6909,-9.6918,0,0,0,0,0,0,-9.6136,-9.6156,-9.636,-9.6277,-9.6272,-9.6233,-9.6241,-9.6358,-9.6336,-9.6264,-9.6254,-9.6265,-9.6324,-9.6358,-9.6368,-9.6554,-9.6369,-9.6378,-9.6384,-9.6388,-9.6908,-9.6915,0,0,0,0,0,0,-9.6143,-9.616,-9.6276,-9.6272,-9.6267,-9.6319,-9.6336,-9.6456,-9.6267,-9.6264,-9.6249,-9.624,-9.6328,-9.6337,-9.6367,-9.655,-9.6553,-9.637,-9.6376,-9.638,-9.6383,0,0,0,0,0,0,0,-9.6149,-9.6051,-9.6329,-9.6268,-9.6263,-9.6408,-9.641,-9.6411,-9.6266,-9.6258,-9.6251,-9.6244,-9.632,-9.6329,-9.6339,-9.6546,0,0,-9.6369,-9.6373,0,0,0,0,0,0,0,0,-9.6043,-9.6049,-9.6329,-9.633,-9.6331,-9.6409,-9.641,-9.6411,-9.6264,-9.6258,-9.6252,-9.6247,-9.6322,-9.633,-9.6338,0,0,0,0,0,0,0,0,0,0,0,0,0,0,0,-9.6329,-9.633,0,-9.6409,-9.641,-9.6411,-9.6263,-9.6259,-9.6254,-9.6249,-9.6324,-9.6331,-9.6337,0,0,0,0,0,0,0,0,0,0,0,0,0,0,0,0,0,0,0,0,0,0,0,0,0,0,0,0,0,0,0,0,0,0,0,0,0,0,0,0,0,0,0,0,0,0,0,0,0,0,0,0,0,0,0,0,0,0,0,0,0,0,0,0,0,0,0,0,0]}]]]